| time (UTC) | temp C | wind direction | speed KPH | gust KPH | rain 1hr cm | rain 24hr cm | rain mn cm | humidity % | barometer mb |
| 20260507223227 | 27 | 317 | 0.0 | 0.0 | 0.00 | 0.00 | 0.00 | 85 | 1007.8 |
| 20260507222728 | 27 | 316 | 0.0 | 1.6 | 0.00 | 0.00 | 0.00 | 85 | 1007.8 |
| 20260507222227 | 27 | 317 | 0.0 | 0.0 | 0.00 | 0.00 | 0.00 | 85 | 1007.8 |
| 20260507221727 | 27 | 316 | 0.0 | 1.6 | 0.00 | 0.00 | 0.00 | 86 | 1007.8 |
| 20260507221229 | 27 | 316 | 0.0 | 0.0 | 0.00 | 0.00 | 0.00 | 86 | 1007.8 |
| 20260507220727 | 27 | 316 | 0.0 | 0.0 | 0.00 | 0.00 | 0.00 | 86 | 1007.8 |
| 20260507220227 | 27 | 316 | 0.0 | 1.6 | 0.00 | 0.00 | 0.00 | 86 | 1008.1 |
| 20260507215728 | 27 | 316 | 1.6 | 1.6 | 0.00 | 0.00 | 0.00 | 86 | 1008.1 |
| 20260507215227 | 27 | 316 | 0.0 | 0.0 | 0.00 | 0.00 | 0.00 | 86 | 1008.1 |
| 20260507214727 | 27 | 317 | 1.6 | 3.2 | 0.00 | 0.00 | 0.00 | 85 | 1008.1 |
| 20260507214230 | 27 | 353 | 1.6 | 1.6 | 0.00 | 0.00 | 0.00 | 85 | 1008.1 |
| 20260507213727 | 27 | 321 | 1.6 | 3.2 | 0.00 | 0.00 | 0.00 | 85 | 1008.1 |
| 20260507213229 | 27 | 348 | 1.6 | 1.6 | 0.00 | 0.00 | 0.00 | 85 | 1008.5 |
| 20260507212730 | 27 | 329 | 1.6 | 3.2 | 0.00 | 0.00 | 0.00 | 85 | 1008.5 |
| 20260507212228 | 27 | 340 | 1.6 | 1.6 | 0.00 | 0.00 | 0.00 | 85 | 1008.8 |
| 20260507211728 | 27 | 344 | 1.6 | 1.6 | 0.00 | 0.00 | 0.00 | 85 | 1008.5 |
| 20260507211229 | 27 | 356 | 0.0 | 3.2 | 0.00 | 0.00 | 0.00 | 85 | 1008.5 |
| 20260507210727 | 27 | 7 | 0.0 | 0.0 | 0.00 | 0.00 | 0.00 | 85 | 1008.5 |
| 20260507210229 | 27 | 95 | 0.0 | 0.0 | 0.00 | 0.00 | 0.00 | 85 | 1008.1 |
| 20260507205728 | 27 | 96 | 0.0 | 0.0 | 0.00 | 0.00 | 0.00 | 85 | 1008.1 |
| 20260507205236 | 27 | 89 | 0.0 | 0.0 | 0.00 | 0.00 | 0.00 | 85 | 1008.5 |
| 20260507204727 | 27 | 93 | 0.0 | 1.6 | 0.00 | 0.00 | 0.00 | 85 | 1008.5 |
| 20260507204227 | 27 | 110 | 0.0 | 1.6 | 0.00 | 0.00 | 0.00 | 84 | 1008.5 |
| 20260507203728 | 27 | 55 | 0.0 | 1.6 | 0.00 | 0.00 | 0.00 | 84 | 1008.5 |
| 20260507203228 | 27 | 45 | 0.0 | 1.6 | 0.00 | 0.00 | 0.00 | 84 | 1008.5 |
| 20260507202729 | 27 | 45 | 0.0 | 0.0 | 0.00 | 0.00 | 0.00 | 84 | 1008.5 |
| 20260507202227 | 27 | 354 | 0.0 | 0.0 | 0.00 | 0.00 | 0.00 | 84 | 1008.5 |
| 20260507201728 | 27 | 344 | 0.0 | 3.2 | 0.00 | 0.00 | 0.00 | 84 | 1008.8 |
| 20260507201229 | 27 | 343 | 1.6 | 1.6 | 0.00 | 0.00 | 0.00 | 84 | 1008.8 |
| 20260507200733 | 27 | 342 | 3.2 | 3.2 | 0.00 | 0.00 | 0.00 | 84 | 1008.8 |
| 20260507200228 | 27 | 347 | 1.6 | 1.6 | 0.00 | 0.00 | 0.00 | 84 | 1008.8 |
| 20260507195727 | 27 | 357 | 0.0 | 1.6 | 0.00 | 0.00 | 0.00 | 84 | 1008.8 |
| 20260507195227 | 27 | 48 | 0.0 | 0.0 | 0.00 | 0.00 | 0.00 | 84 | 1008.8 |
| 20260507194729 | 27 | 333 | 0.0 | 1.6 | 0.00 | 0.00 | 0.00 | 84 | 1008.8 |
| 20260507194230 | 27 | 1 | 1.6 | 4.8 | 0.00 | 0.00 | 0.00 | 84 | 1008.8 |
| 20260507193728 | 27 | 358 | 1.6 | 4.8 | 0.00 | 0.00 | 0.00 | 84 | 1009.1 |
| 20260507193227 | 27 | 354 | 1.6 | 4.8 | 0.00 | 0.00 | 0.00 | 84 | 1009.5 |
| 20260507192727 | 27 | 339 | 1.6 | 1.6 | 0.00 | 0.00 | 0.00 | 84 | 1009.5 |
| 20260507192230 | 27 | 347 | 1.6 | 3.2 | 0.00 | 0.00 | 0.00 | 85 | 1009.1 |
| 20260507191728 | 27 | 349 | 0.0 | 0.0 | 0.00 | 0.00 | 0.00 | 85 | 1009.5 |
| 20260507191227 | 27 | 355 | 1.6 | 1.6 | 0.00 | 0.00 | 0.00 | 85 | 1009.5 |
| 20260507190728 | 27 | 50 | 0.0 | 0.0 | 0.00 | 0.00 | 0.00 | 85 | 1009.5 |
| 20260507190228 | 27 | 116 | 0.0 | 1.6 | 0.00 | 0.00 | 0.00 | 85 | 1009.1 |
| 20260507185728 | 27 | 115 | 0.0 | 0.0 | 0.00 | 0.00 | 0.00 | 85 | 1009.1 |
| 20260507185229 | 27 | 116 | 0.0 | 0.0 | 0.00 | 0.00 | 0.00 | 85 | 1009.5 |
| 20260507184727 | 27 | 116 | 0.0 | 1.6 | 0.00 | 0.00 | 0.00 | 85 | 1009.1 |
| 20260507184227 | 27 | 116 | 1.6 | 3.2 | 0.00 | 0.00 | 0.00 | 85 | 1009.1 |
| 20260507183728 | 27 | 99 | 0.0 | 3.2 | 0.00 | 0.00 | 0.00 | 84 | 1009.1 |
| 20260507183230 | 27 | 80 | 0.0 | 0.0 | 0.00 | 0.00 | 0.00 | 84 | 1009.1 |
| 20260507182729 | 27 | 80 | 0.0 | 0.0 | 0.00 | 0.00 | 0.03 | 84 | 1009.1 |
| 20260507182228 | 27 | 80 | 0.0 | 0.0 | 0.00 | 0.00 | 0.03 | 83 | 1009.5 |
| 20260507181729 | 27 | 79 | 1.6 | 3.2 | 0.00 | 0.00 | 0.03 | 83 | 1009.5 |
| 20260507181229 | 28 | 92 | 1.6 | 3.2 | 0.00 | 0.00 | 0.03 | 83 | 1009.5 |
| 20260507150230 | 29 | 120 | 0.0 | 1.6 | 0.00 | 0.00 | 0.03 | 76 | 1007.8 |
| 20260507145727 | 29 | 122 | 0.0 | 0.0 | 0.00 | 0.00 | 0.03 | 76 | 1007.8 |
| 20260507145229 | 29 | 118 | 0.0 | 1.6 | 0.00 | 0.00 | 0.03 | 76 | 1008.1 |
| 20260507144731 | 29 | 109 | 0.0 | 0.0 | 0.00 | 0.00 | 0.03 | 76 | 1007.8 |
| 20260507144228 | 29 | 104 | 0.0 | 0.0 | 0.00 | 0.00 | 0.03 | 75 | 1007.8 |
| 20260507143730 | 29 | 86 | 0.0 | 0.0 | 0.00 | 0.00 | 0.03 | 75 | 1007.5 |
| 20260507143227 | 30 | 164 | 0.0 | 1.6 | 0.00 | 0.00 | 0.03 | 75 | 1007.8 |
| 20260507142730 | 30 | 217 | 0.0 | 1.6 | 0.00 | 0.00 | 0.03 | 75 | 1007.5 |
| 20260507142227 | 30 | 315 | 1.6 | 4.8 | 0.00 | 0.00 | 0.03 | 75 | 1007.5 |
| 20260507141729 | 30 | 107 | 0.0 | 0.0 | 0.00 | 0.00 | 0.03 | 75 | 1007.1 |
| 20260507141230 | 30 | 113 | 1.6 | 1.6 | 0.00 | 0.00 | 0.03 | 75 | 1007.1 |
| 20260507140728 | 30 | 131 | 0.0 | 1.6 | 0.00 | 0.00 | 0.03 | 75 | 1007.5 |
| 20260507140229 | 30 | 120 | 0.0 | 1.6 | 0.00 | 0.00 | 0.03 | 74 | 1007.1 |
| 20260507135730 | 30 | 95 | 0.0 | 3.2 | 0.00 | 0.00 | 0.03 | 74 | 1007.1 |
| 20260507135230 | 30 | 111 | 0.0 | 0.0 | 0.00 | 0.00 | 0.03 | 73 | 1006.8 |
| 20260507134728 | 30 | 102 | 1.6 | 1.6 | 0.00 | 0.00 | 0.03 | 73 | 1006.8 |
| 20260507134228 | 30 | 117 | 1.6 | 1.6 | 0.00 | 0.00 | 0.03 | 73 | 1006.8 |
| 20260507133727 | 30 | 74 | 0.0 | 3.2 | 0.00 | 0.00 | 0.03 | 73 | 1006.4 |
| 20260507133227 | 30 | 180 | 3.2 | 8.0 | 0.00 | 0.00 | 0.03 | 73 | 1006.4 |
| 20260507132730 | 30 | 171 | 1.6 | 8.0 | 0.00 | 0.00 | 0.03 | 72 | 1006.4 |
| 20260507132230 | 30 | 162 | 3.2 | 4.8 | 0.00 | 0.00 | 0.03 | 71 | 1006.4 |
| 20260507131730 | 30 | 101 | 1.6 | 4.8 | 0.00 | 0.00 | 0.03 | 71 | 1006.4 |
| 20260507131228 | 30 | 159 | 8.0 | 9.7 | 0.00 | 0.00 | 0.03 | 71 | 1006.4 |
| 20260507130733 | 31 | 161 | 4.8 | 8.0 | 0.00 | 0.00 | 0.03 | 71 | 1006.4 |
| 20260507130230 | 31 | 178 | 6.4 | 11.3 | 0.00 | 0.00 | 0.03 | 70 | 1006.1 |
| 20260507125729 | 31 | 163 | 4.8 | 8.0 | 0.00 | 0.00 | 0.03 | 70 | 1006.4 |
| 20260507125228 | 31 | 188 | 1.6 | 3.2 | 0.00 | 0.00 | 0.03 | 69 | 1006.4 |
| 20260507124731 | 31 | 145 | 4.8 | 4.8 | 0.00 | 0.00 | 0.03 | 69 | 1006.1 |
| 20260507124228 | 31 | 182 | 1.6 | 9.7 | 0.00 | 0.00 | 0.03 | 68 | 1006.1 |
| 20260507123727 | 31 | 174 | 3.2 | 9.7 | 0.00 | 0.00 | 0.03 | 68 | 1005.8 |
| 20260507123228 | 31 | 92 | 1.6 | 9.7 | 0.00 | 0.00 | 0.03 | 67 | 1006.1 |
| 20260507122728 | 32 | 200 | 6.4 | 11.3 | 0.00 | 0.00 | 0.03 | 66 | 1005.8 |
| 20260507122227 | 32 | 187 | 8.0 | 11.3 | 0.00 | 0.00 | 0.03 | 65 | 1005.8 |
| 20260507121727 | 32 | 118 | 1.6 | 8.0 | 0.00 | 0.00 | 0.03 | 65 | 1005.8 |
| 20260507121228 | 32 | 166 | 6.4 | 8.0 | 0.00 | 0.00 | 0.03 | 64 | 1005.4 |
| 20260507120730 | 32 | 172 | 3.2 | 4.8 | 0.00 | 0.00 | 0.03 | 63 | 1005.4 |
| 20260507120227 | 32 | 115 | 4.8 | 11.3 | 0.00 | 0.00 | 0.03 | 62 | 1005.4 |
| 20260507115730 | 32 | 127 | 8.0 | 11.3 | 0.00 | 0.00 | 0.03 | 62 | 1005.4 |
| 20260507115227 | 32 | 155 | 3.2 | 11.3 | 0.00 | 0.00 | 0.03 | 61 | 1005.4 |
| 20260507114728 | 32 | 186 | 6.4 | 9.7 | 0.00 | 0.00 | 0.03 | 61 | 1005.4 |
| 20260507114230 | 32 | 207 | 1.6 | 16.1 | 0.00 | 0.00 | 0.03 | 62 | 1005.4 |
| 20260507113730 | 33 | 199 | 4.8 | 11.3 | 0.00 | 0.00 | 0.03 | 61 | 1005.1 |
| 20260507113228 | 33 | 176 | 6.4 | 17.7 | 0.00 | 0.00 | 0.03 | 61 | 1005.4 |
| 20260507112727 | 33 | 108 | 3.2 | 11.3 | 0.00 | 0.00 | 0.03 | 62 | 1005.4 |
| 20260507112228 | 33 | 196 | 11.3 | 12.9 | 0.00 | 0.00 | 0.03 | 61 | 1005.1 |
| 20260507111727 | 33 | 167 | 8.0 | 11.3 | 0.00 | 0.00 | 0.03 | 61 | 1005.4 |
| 20260507111230 | 33 | 228 | 4.8 | 12.9 | 0.00 | 0.00 | 0.03 | 62 | 1005.4 |
| 20260507110728 | 33 | 157 | 4.8 | 9.7 | 0.00 | 0.00 | 0.03 | 61 | 1005.4 |
| 20260507110227 | 33 | 146 | 12.9 | 16.1 | 0.00 | 0.00 | 0.03 | 59 | 1005.4 |
| 20260507105727 | 34 | 189 | 3.2 | 14.5 | 0.00 | 0.00 | 0.03 | 58 | 1005.8 |
| 20260507105227 | 34 | 209 | 3.2 | 14.5 | 0.00 | 0.00 | 0.03 | 58 | 1005.8 |
| 20260507104729 | 34 | 172 | 1.6 | 11.3 | 0.00 | 0.00 | 0.03 | 58 | 1005.8 |
| 20260507104227 | 34 | 184 | 6.4 | 9.7 | 0.00 | 0.00 | 0.03 | 57 | 1005.8 |
| 20260507103727 | 34 | 195 | 4.8 | 9.7 | 0.00 | 0.00 | 0.03 | 59 | 1005.8 |
| 20260507103228 | 34 | 140 | 4.8 | 11.3 | 0.00 | 0.00 | 0.03 | 58 | 1005.8 |
| 20260507102729 | 34 | 218 | 6.4 | 12.9 | 0.00 | 0.00 | 0.03 | 60 | 1005.8 |
| 20260507102227 | 35 | 124 | 1.6 | 4.8 | 0.00 | 0.00 | 0.03 | 58 | 1005.8 |
| 20260507101727 | 35 | 135 | 3.2 | 12.9 | 0.00 | 0.00 | 0.03 | 58 | 1005.8 |
| 20260507101227 | 34 | 136 | 9.7 | 14.5 | 0.00 | 0.00 | 0.03 | 61 | 1005.8 |
| 20260507100730 | 34 | 200 | 6.4 | 14.5 | 0.00 | 0.00 | 0.03 | 61 | 1006.1 |
| 20260507100230 | 33 | 185 | 8.0 | 11.3 | 0.00 | 0.00 | 0.03 | 62 | 1006.1 |
| 20260507095727 | 33 | 222 | 3.2 | 9.7 | 0.00 | 0.00 | 0.03 | 61 | 1006.1 |
| 20260507095227 | 34 | 187 | 3.2 | 9.7 | 0.00 | 0.00 | 0.03 | 58 | 1006.1 |
| 20260507094729 | 35 | 202 | 3.2 | 4.8 | 0.00 | 0.00 | 0.03 | 55 | 1006.4 |
| 20260507094230 | 35 | 90 | 4.8 | 14.5 | 0.00 | 0.00 | 0.03 | 55 | 1006.4 |
| 20260507093727 | 35 | 117 | 8.0 | 9.7 | 0.00 | 0.00 | 0.03 | 54 | 1006.4 |
| 20260507093228 | 35 | 176 | 4.8 | 9.7 | 0.00 | 0.00 | 0.03 | 55 | 1006.4 |
| 20260507092729 | 35 | 155 | 3.2 | 12.9 | 0.00 | 0.00 | 0.03 | 57 | 1006.4 |
| 20260507092228 | 35 | 233 | 4.8 | 8.0 | 0.00 | 0.00 | 0.03 | 56 | 1006.4 |
| 20260507091728 | 34 | 148 | 3.2 | 12.9 | 0.00 | 0.00 | 0.03 | 57 | 1006.4 |
| 20260507091230 | 35 | 199 | 6.4 | 8.0 | 0.03 | 0.00 | 0.03 | 57 | 1006.4 |
| 20260507090728 | 35 | 175 | 8.0 | 14.5 | 0.03 | 0.00 | 0.03 | 56 | 1006.4 |
| 20260507090233 | 35 | 191 | 4.8 | 9.7 | 0.03 | 0.00 | 0.03 | 55 | 1006.4 |
| 20260507085728 | 35 | 93 | 6.4 | 11.3 | 0.03 | 0.00 | 0.03 | 56 | 1006.8 |
| 20260507085227 | 35 | 215 | 4.8 | 12.9 | 0.03 | 0.00 | 0.03 | 58 | 1006.8 |
| 20260507084727 | 35 | 206 | 3.2 | 9.7 | 0.03 | 0.00 | 0.03 | 58 | 1006.8 |
| 20260507084227 | 35 | 150 | 4.8 | 8.0 | 0.03 | 0.00 | 0.03 | 57 | 1006.8 |
| 20260507083729 | 34 | 184 | 6.4 | 11.3 | 0.03 | 0.00 | 0.03 | 62 | 1006.8 |
| 20260507083228 | 33 | 161 | 1.6 | 16.1 | 0.03 | 0.00 | 0.03 | 63 | 1006.8 |
| 20260507082729 | 33 | 189 | 6.4 | 12.9 | 0.03 | 0.00 | 0.03 | 65 | 1007.1 |
| 20260507082227 | 33 | 167 | 4.8 | 11.3 | 0.03 | 0.00 | 0.03 | 65 | 1007.1 |
| 20260507081730 | 33 | 190 | 9.7 | 16.1 | 0.03 | 0.00 | 0.03 | 66 | 1007.5 |
| 20260507081228 | 33 | 174 | 1.6 | 11.3 | 0.00 | 0.00 | 0.03 | 67 | 1007.5 |
| 20260507080727 | 32 | 165 | 1.6 | 9.7 | 0.00 | 0.00 | 0.00 | 74 | 1007.5 |
| 20260507080227 | 33 | 175 | 1.6 | 8.0 | 0.00 | 0.00 | 0.00 | 70 | 1007.5 |
| 20260507075728 | 32 | 184 | 4.8 | 9.7 | 0.00 | 0.00 | 0.00 | 70 | 1007.5 |
| 20260507075228 | 33 | 174 | 4.8 | 12.9 | 0.00 | 0.00 | 0.00 | 68 | 1007.8 |
| 20260507074727 | 33 | 207 | 1.6 | 8.0 | 0.00 | 0.00 | 0.00 | 63 | 1007.8 |
| 20260507074227 | 33 | 124 | 4.8 | 12.9 | 0.00 | 0.00 | 0.00 | 63 | 1007.8 |
| 20260507073727 | 33 | 123 | 4.8 | 14.5 | 0.00 | 0.00 | 0.00 | 63 | 1007.5 |
| 20260507073230 | 33 | 174 | 8.0 | 20.9 | 0.00 | 0.00 | 0.00 | 62 | 1007.8 |
| 20260507072729 | 34 | 141 | 4.8 | 11.3 | 0.00 | 0.00 | 0.00 | 61 | 1008.1 |
| 20260507072227 | 34 | 217 | 4.8 | 12.9 | 0.00 | 0.00 | 0.00 | 60 | 1008.1 |
| 20260507071728 | 33 | 233 | 8.0 | 9.7 | 0.00 | 0.00 | 0.00 | 60 | 1008.5 |
| 20260507071228 | 33 | 144 | 4.8 | 8.0 | 0.00 | 0.00 | 0.00 | 62 | 1008.5 |
| 20260507070728 | 33 | 206 | 1.6 | 9.7 | 0.00 | 0.00 | 0.00 | 62 | 1008.5 |
| 20260507070228 | 33 | 119 | 9.7 | 12.9 | 0.00 | 0.00 | 0.00 | 61 | 1008.5 |
| 20260507065728 | 33 | 142 | 3.2 | 8.0 | 0.00 | 0.00 | 0.00 | 64 | 1008.8 |
| 20260507065229 | 33 | 180 | 3.2 | 4.8 | 0.00 | 0.00 | 0.00 | 64 | 1008.8 |
| 20260507064728 | 33 | 136 | 1.6 | 8.0 | 0.00 | 0.00 | 0.00 | 64 | 1008.8 |
| 20260507064227 | 33 | 187 | 4.8 | 8.0 | 0.00 | 0.00 | 0.00 | 61 | 1008.5 |
| 20260507063727 | 34 | 175 | 1.6 | 11.3 | 0.00 | 0.00 | 0.00 | 60 | 1008.8 |
| 20260507063228 | 34 | 170 | 11.3 | 14.5 | 0.00 | 0.00 | 0.00 | 58 | 1008.8 |
| 20260507062727 | 33 | 227 | 9.7 | 14.5 | 0.00 | 0.00 | 0.00 | 60 | 1008.8 |
| 20260507062229 | 33 | 130 | 3.2 | 12.9 | 0.00 | 0.00 | 0.00 | 61 | 1008.8 |
| 20260507061727 | 33 | 171 | 3.2 | 11.3 | 0.00 | 0.00 | 0.00 | 62 | 1008.8 |
| 20260507061228 | 33 | 178 | 12.9 | 14.5 | 0.00 | 0.00 | 0.00 | 61 | 1009.1 |
| 20260507060728 | 33 | 214 | 6.4 | 11.3 | 0.00 | 0.00 | 0.00 | 60 | 1009.1 |
| 20260507060227 | 33 | 225 | 6.4 | 9.7 | 0.00 | 0.00 | 0.00 | 59 | 1009.1 |
| 20260507055727 | 33 | 172 | 1.6 | 9.7 | 0.00 | 0.00 | 0.00 | 60 | 1009.1 |
| 20260507055227 | 35 | 234 | 4.8 | 14.5 | 0.00 | 0.00 | 0.00 | 57 | 1009.1 |
| 20260507054727 | 35 | 250 | 3.2 | 8.0 | 0.00 | 0.00 | 0.00 | 57 | 1009.1 |
| 20260507054227 | 34 | 158 | 6.4 | 8.0 | 0.00 | 0.00 | 0.00 | 58 | 1008.8 |
| 20260507053728 | 34 | 145 | 11.3 | 16.1 | 0.00 | 0.00 | 0.00 | 59 | 1009.5 |
| 20260507053228 | 33 | 191 | 3.2 | 17.7 | 0.00 | 0.00 | 0.00 | 62 | 1009.1 |
| 20260507052727 | 33 | 243 | 8.0 | 11.3 | 0.00 | 0.00 | 0.00 | 61 | 1009.5 |
| 20260507052227 | 33 | 219 | 3.2 | 9.7 | 0.00 | 0.00 | 0.00 | 62 | 1009.1 |
| 20260507051728 | 33 | 223 | 14.5 | 22.5 | 0.00 | 0.00 | 0.00 | 62 | 1009.5 |
| 20260507051227 | 33 | 153 | 6.4 | 12.9 | 0.00 | 0.00 | 0.00 | 61 | 1009.5 |
| 20260507050727 | 33 | 114 | 0.0 | 12.9 | 0.00 | 0.00 | 0.00 | 61 | 1009.5 |
| 20260507050227 | 33 | 269 | 4.8 | 11.3 | 0.00 | 0.00 | 0.00 | 62 | 1009.5 |
| 20260507045727 | 33 | 150 | 6.4 | 12.9 | 0.00 | 0.00 | 0.00 | 63 | 1009.5 |
| 20260507045227 | 33 | 144 | 8.0 | 14.5 | 0.00 | 0.00 | 0.00 | 61 | 1009.5 |
| 20260507044728 | 34 | 170 | 6.4 | 14.5 | 0.00 | 0.00 | 0.00 | 60 | 1009.5 |
| 20260507044228 | 34 | 200 | 9.7 | 12.9 | 0.00 | 0.00 | 0.00 | 59 | 1009.5 |
| 20260507043728 | 33 | 256 | 3.2 | 9.7 | 0.00 | 0.00 | 0.00 | 61 | 1009.5 |
| 20260507043228 | 33 | 265 | 4.8 | 11.3 | 0.00 | 0.00 | 0.00 | 62 | 1009.5 |
| 20260507042729 | 33 | 179 | 11.3 | 14.5 | 0.00 | 0.00 | 0.00 | 61 | 1009.8 |
| 20260507042228 | 33 | 234 | 1.6 | 8.0 | 0.00 | 0.00 | 0.00 | 61 | 1009.5 |
| 20260507041728 | 33 | 226 | 6.4 | 9.7 | 0.00 | 0.00 | 0.00 | 60 | 1009.8 |
| 20260507041228 | 33 | 215 | 4.8 | 12.9 | 0.00 | 0.00 | 0.00 | 61 | 1009.8 |
| 20260507040728 | 34 | 139 | 6.4 | 11.3 | 0.00 | 0.00 | 0.00 | 60 | 1009.5 |
| 20260507040228 | 33 | 180 | 1.6 | 9.7 | 0.00 | 0.00 | 0.00 | 61 | 1009.8 |
| 20260507035728 | 33 | 212 | 4.8 | 9.7 | 0.00 | 0.00 | 0.00 | 61 | 1009.5 |
| 20260507035227 | 33 | 145 | 8.0 | 9.7 | 0.00 | 0.00 | 0.00 | 61 | 1009.5 |
| 20260507034727 | 33 | 219 | 1.6 | 3.2 | 0.00 | 0.00 | 0.00 | 62 | 1009.5 |
| 20260507034227 | 33 | 106 | 4.8 | 8.0 | 0.00 | 0.00 | 0.00 | 62 | 1009.5 |
| 20260507033728 | 32 | 167 | 1.6 | 8.0 | 0.00 | 0.00 | 0.00 | 64 | 1009.5 |
| 20260507033229 | 32 | 122 | 4.8 | 9.7 | 0.00 | 0.00 | 0.00 | 65 | 1009.8 |
| 20260507032727 | 32 | 229 | 8.0 | 16.1 | 0.00 | 0.00 | 0.00 | 64 | 1009.8 |
| 20260507032228 | 32 | 221 | 8.0 | 9.7 | 0.00 | 0.00 | 0.00 | 64 | 1009.5 |
| 20260507031727 | 32 | 129 | 4.8 | 12.9 | 0.00 | 0.00 | 0.00 | 66 | 1009.5 |
| 20260507031228 | 31 | 176 | 3.2 | 11.3 | 0.00 | 0.00 | 0.00 | 68 | 1009.5 |
| 20260507030727 | 31 | 140 | 3.2 | 9.7 | 0.00 | 0.00 | 0.00 | 69 | 1009.5 |
| 20260507030229 | 32 | 157 | 3.2 | 11.3 | 0.00 | 0.00 | 0.00 | 68 | 1009.5 |
| 20260507025729 | 32 | 98 | 0.0 | 3.2 | 0.00 | 0.00 | 0.00 | 67 | 1009.5 |
| 20260507025230 | 32 | 103 | 0.0 | 3.2 | 0.00 | 0.00 | 0.00 | 69 | 1009.5 |
| 20260507024727 | 31 | 143 | 3.2 | 4.8 | 0.00 | 0.00 | 0.00 | 70 | 1009.5 |
| 20260507024227 | 31 | 200 | 3.2 | 8.0 | 0.00 | 0.00 | 0.00 | 69 | 1009.1 |
| 20260507023727 | 32 | 185 | 4.8 | 11.3 | 0.00 | 0.00 | 0.00 | 69 | 1009.1 |
| 20260507023227 | 32 | 90 | 0.0 | 3.2 | 0.00 | 0.00 | 0.00 | 72 | 1009.5 |
| 20260507022728 | 31 | 140 | 0.0 | 1.6 | 0.00 | 0.00 | 0.00 | 73 | 1009.1 |
| 20260507022230 | 31 | 86 | 0.0 | 3.2 | 0.00 | 0.00 | 0.00 | 74 | 1009.1 |
| 20260507021728 | 31 | 163 | 1.6 | 3.2 | 0.00 | 0.00 | 0.00 | 76 | 1008.8 |
| 20260507021230 | 31 | 178 | 3.2 | 4.8 | 0.00 | 0.00 | 0.00 | 76 | 1009.1 |
| 20260507020727 | 31 | 203 | 3.2 | 3.2 | 0.00 | 0.00 | 0.00 | 76 | 1008.8 |
| 20260507020227 | 31 | 203 | 0.0 | 1.6 | 0.00 | 0.00 | 0.00 | 77 | 1008.8 |
| 20260507015727 | 31 | 183 | 1.6 | 3.2 | 0.00 | 0.00 | 0.00 | 76 | 1008.8 |
| 20260507015229 | 30 | 95 | 0.0 | 1.6 | 0.00 | 0.00 | 0.00 | 78 | 1008.8 |
| 20260507014729 | 30 | 168 | 3.2 | 3.2 | 0.00 | 0.00 | 0.00 | 78 | 1008.8 |
| 20260507014228 | 30 | 80 | 1.6 | 3.2 | 0.00 | 0.00 | 0.00 | 79 | 1008.8 |
| 20260507013727 | 30 | 110 | 0.0 | 3.2 | 0.00 | 0.00 | 0.00 | 80 | 1008.8 |
| 20260507013229 | 30 | 130 | 1.6 | 1.6 | 0.00 | 0.00 | 0.00 | 80 | 1008.5 |
| 20260507012729 | 29 | 129 | 0.0 | 1.6 | 0.00 | 0.00 | 0.00 | 82 | 1008.5 |
| 20260507012229 | 29 | 111 | 1.6 | 3.2 | 0.00 | 0.00 | 0.00 | 81 | 1008.5 |
| 20260507011730 | 29 | 44 | 1.6 | 1.6 | 0.00 | 0.00 | 0.00 | 81 | 1008.5 |
| 20260507011228 | 28 | 44 | 0.0 | 0.0 | 0.00 | 0.00 | 0.00 | 83 | 1008.1 |
| 20260507010729 | 28 | 44 | 1.6 | 1.6 | 0.00 | 0.00 | 0.00 | 84 | 1008.1 |
| 20260507010230 | 28 | 44 | 0.0 | 0.0 | 0.00 | 0.00 | 0.00 | 85 | 1008.1 |
| 20260507005729 | 27 | 44 | 0.0 | 1.6 | 0.00 | 0.00 | 0.00 | 86 | 1008.5 |
| 20260507005227 | 27 | 44 | 0.0 | 1.6 | 0.00 | 0.00 | 0.00 | 87 | 1008.1 |
| 20260507004728 | 27 | 44 | 0.0 | 1.6 | 0.00 | 0.00 | 0.00 | 87 | 1008.1 |
| 20260507004228 | 27 | 44 | 0.0 | 0.0 | 0.00 | 0.00 | 0.00 | 88 | 1007.8 |
| 20260507003728 | 27 | 44 | 0.0 | 0.0 | 0.00 | 0.00 | 0.00 | 89 | 1007.8 |
| 20260507003229 | 26 | 44 | 0.0 | 1.6 | 0.00 | 0.00 | 0.00 | 89 | 1007.8 |
| 20260507002728 | 26 | 44 | 1.6 | 1.6 | 0.00 | 0.00 | 0.00 | 89 | 1007.8 |
| 20260507002227 | 26 | 8 | 0.0 | 1.6 | 0.00 | 0.00 | 0.00 | 89 | 1007.8 |
| 20260507001730 | 26 | 8 | 1.6 | 4.8 | 0.00 | 0.00 | 0.00 | 88 | 1007.5 |
| 20260507001227 | 27 | 122 | 0.0 | 1.6 | 0.00 | 0.00 | 0.00 | 88 | 1007.5 |
| 20260507000728 | 27 | 130 | 0.0 | 0.0 | 0.00 | 0.00 | 0.00 | 88 | 1007.5 |
| 20260507000228 | 27 | 130 | 0.0 | 0.0 | 0.00 | 0.00 | 0.00 | 88 | 1007.5 |
| 20260506235727 | 27 | 130 | 0.0 | 0.0 | 0.00 | 0.00 | 0.00 | 88 | 1007.5 |
| 20260506235227 | 27 | 130 | 0.0 | 0.0 | 0.00 | 0.00 | 0.00 | 88 | 1007.1 |
| 20260506234729 | 27 | 130 | 0.0 | 0.0 | 0.00 | 0.00 | 0.00 | 88 | 1007.5 |
| 20260506234227 | 27 | 130 | 0.0 | 0.0 | 0.00 | 0.00 | 0.00 | 88 | 1007.5 |
| 20260506233727 | 27 | 130 | 0.0 | 0.0 | 0.00 | 0.00 | 0.00 | 88 | 1007.1 |
| 20260506233231 | 27 | 130 | 0.0 | 0.0 | 0.00 | 0.00 | 0.00 | 88 | 1007.1 |
| 20260506232728 | 27 | 130 | 0.0 | 0.0 | 0.00 | 0.00 | 0.00 | 88 | 1007.1 |
| 20260506232227 | 27 | 130 | 0.0 | 0.0 | 0.00 | 0.00 | 0.00 | 88 | 1007.1 |
| 20260506231727 | 27 | 130 | 0.0 | 0.0 | 0.00 | 0.00 | 0.00 | 88 | 1007.1 |
| 20260506231228 | 27 | 130 | 0.0 | 0.0 | 0.00 | 0.00 | 0.00 | 89 | 1006.8 |
| 20260506230727 | 27 | 130 | 0.0 | 0.0 | 0.00 | 0.00 | 0.00 | 89 | 1007.1 |
| 20260506230229 | 27 | 130 | 0.0 | 1.6 | 0.00 | 0.00 | 0.00 | 89 | 1006.8 |
| 20260506225729 | 27 | 130 | 0.0 | 1.6 | 0.00 | 0.00 | 0.00 | 89 | 1006.8 |
| 20260506225229 | 27 | 130 | 0.0 | 0.0 | 0.00 | 0.00 | 0.00 | 89 | 1006.8 |
| 20260506224727 | 27 | 130 | 0.0 | 0.0 | 0.00 | 0.00 | 0.00 | 89 | 1006.8 |
| 20260506224229 | 27 | 130 | 1.6 | 1.6 | 0.00 | 0.00 | 0.00 | 89 | 1006.8 |
| 20260506223728 | 27 | 130 | 1.6 | 1.6 | 0.00 | 0.00 | 0.00 | 89 | 1006.4 |